When you browse on this site, cookies collect data to enhance your experience and personalize the content and advertising you see.
Visit our Privacy Policy to learn more. By continuing to use the site, you agree to this use of cookies and data.
  • In Latvia
  • List of Countries
  • For 7 days
  • Water Temperature
  • Satellite Maps
  • Weather Map
  • Weather Widgets
  • user-avatar
    Login

    Hourly Weather Lyubyacha

    Today, 22 March, Friday

    Time Temperature Precipitation Wind Pressure Humidity
    00:00 +5°C° 0 mm 5 mps 750 mmHg 81%
    01:00 +5°C° 0 mm 6 mps 750 mmHg 83%
    02:00 +6°C° 0 mm 5 mps 749 mmHg 87%
    03:00 +7°C° 0 mm 6 mps 749 mmHg 87%
    04:00 +7°C° 0 mm 6 mps 748 mmHg 87%
    05:00 +7°C° 0 mm 6 mps 748 mmHg 87%
    06:00 +6°C° 0 mm 7 mps 748 mmHg 86%
    07:00 +6°C° 0 mm 7 mps 749 mmHg 84%
    08:00 +6°C° 0 mm 7 mps 749 mmHg 83%
    09:00 +6°C° 0.1 mm 8 mps 749 mmHg 71%
    10:00 +7°C° 0.1 mm 9 mps 750 mmHg 60%
    11:00 +7°C° 0.1 mm 9 mps 750 mmHg 49%
    12:00 +7°C° 0 mm 9 mps 750 mmHg 43%
    13:00 +7°C° 0 mm 9 mps 751 mmHg 38%
    14:00 +6°C° 0 mm 9 mps 751 mmHg 32%
    15:00 +6°C° 0 mm 8 mps 752 mmHg 34%
    16:00 +5°C° 0 mm 8 mps 752 mmHg 36%
    17:00 +5°C° 0 mm 7 mps 752 mmHg 37%
    18:00 +4°C° 0 mm 7 mps 753 mmHg 41%
    19:00 +3°C° 0 mm 6 mps 753 mmHg 44%
    20:00 +1°C° 0 mm 5 mps 753 mmHg 48%
    21:00 +1°C° 0 mm 5 mps 753 mmHg 50%
    22:00 0°C° 0 mm 5 mps 753 mmHg 53%
    23:00 0°C° 0 mm 5 mps 754 mmHg 55%

    Tomorrow, 23 March, Saturday

    Time Temperature Precipitation Wind Pressure Humidity
    00:00 -1°C° 0 mm 5 mps 754 mmHg 58%
    01:00 -1°C° 0 mm 5 mps 754 mmHg 61%
    02:00 -2°C° 0 mm 4 mps 754 mmHg 65%
    03:00 -2°C° 0 mm 4 mps 754 mmHg 66%
    04:00 -2°C° 0 mm 4 mps 754 mmHg 67%
    05:00 -3°C° 0 mm 4 mps 754 mmHg 68%
    06:00 -2°C° 0 mm 4 mps 754 mmHg 66%
    07:00 -2°C° 0 mm 4 mps 754 mmHg 64%
    08:00 -1°C° 0 mm 4 mps 754 mmHg 61%
    09:00 0°C° 0 mm 4 mps 754 mmHg 56%
    10:00 +3°C° 0 mm 3 mps 754 mmHg 51%
    11:00 +4°C° 0 mm 3 mps 754 mmHg 45%
    12:00 +5°C° 0 mm 3 mps 753 mmHg 42%
    13:00 +7°C° 0 mm 2 mps 753 mmHg 38%
    14:00 +8°C° 0 mm 2 mps 753 mmHg 35%
    15:00 +8°C° 0 mm 2 mps 752 mmHg 35%
    16:00 +8°C° 0 mm 2 mps 752 mmHg 36%
    17:00 +8°C° 0 mm 2 mps 751 mmHg 36%
    18:00 +7°C° 0 mm 2 mps 751 mmHg 39%
    19:00 +5°C° 0 mm 2 mps 751 mmHg 43%
    20:00 +4°C° 0 mm 2 mps 751 mmHg 47%
    21:00 +4°C° 0 mm 2 mps 750 mmHg 48%
    22:00 +2°C° 0 mm 3 mps 750 mmHg 50%
    23:00 +2°C° 0 mm 3 mps 749 mmHg 51%

    Day after tomorrow, 24 March, Sunday

    Time Temperature Precipitation Wind Pressure Humidity
    00:00 +2°C° 0.1 mm 3 mps 749 mmHg 54%
    01:00 +2°C° 0.1 mm 3 mps 748 mmHg 57%
    02:00 +1°C° 0.1 mm 4 mps 747 mmHg 60%
    03:00 +3°C° 0.6 mm 3 mps 747 mmHg 70%
    04:00 +3°C° 0.6 mm 3 mps 747 mmHg 80%
    05:00 +3°C° 0.6 mm 3 mps 747 mmHg 89%
    06:00 +4°C° 0 mm 3 mps 747 mmHg 85%
    07:00 +4°C° 0 mm 4 mps 747 mmHg 80%
    08:00 +4°C° 0 mm 4 mps 747 mmHg 75%
    09:00 +5°C° 0 mm 5 mps 748 mmHg 67%
    10:00 +6°C° 0 mm 5 mps 748 mmHg 59%
    11:00 +6°C° 0 mm 5 mps 748 mmHg 50%
    12:00 +7°C° 0 mm 5 mps 747 mmHg 47%
    13:00 +7°C° 0 mm 5 mps 747 mmHg 45%
    14:00 +8°C° 0 mm 5 mps 747 mmHg 42%
    15:00 +7°C° 0 mm 4 mps 747 mmHg 43%
    16:00 +7°C° 0 mm 4 mps 746 mmHg 44%
    17:00 +6°C° 0 mm 4 mps 746 mmHg 45%
    18:00 +7°C° 0 mm 3 mps 746 mmHg 49%
    19:00 +5°C° 0 mm 3 mps 746 mmHg 54%
    20:00 +4°C° 0 mm 3 mps 746 mmHg 58%
    21:00 +3°C° 0 mm 3 mps 746 mmHg 62%
    22:00 +3°C° 0 mm 3 mps 746 mmHg 65%
    23:00 +2°C° 0 mm 3 mps 746 mmHg 69%

    25 March, Monday

    Time Temperature Precipitation Wind Pressure Humidity
    00:00 +2°C° 0 mm 3 mps 746 mmHg 73%
    01:00 +1°C° 0 mm 3 mps 745 mmHg 77%
    02:00 0°C° 0 mm 3 mps 745 mmHg 81%
    03:00 0°C° 0 mm 3 mps 745 mmHg 84%
    04:00 -1°C° 0 mm 3 mps 745 mmHg 88%
    05:00 -1°C° 0 mm 3 mps 744 mmHg 92%
    06:00 -1°C° 0 mm 4 mps 744 mmHg 89%
    07:00 -1°C° 0 mm 4 mps 744 mmHg 86%
    08:00 0°C° 0 mm 4 mps 744 mmHg 83%
    09:00 0°C° 0 mm 4 mps 743 mmHg 80%
    10:00 +1°C° 0 mm 4 mps 743 mmHg 77%
    11:00 +3°C° 0 mm 4 mps 743 mmHg 74%
    12:00 +3°C° 0 mm 4 mps 743 mmHg 70%
    13:00 +4°C° 0 mm 4 mps 742 mmHg 67%
    14:00 +4°C° 0 mm 3 mps 742 mmHg 63%
    15:00 +4°C° 0 mm 3 mps 742 mmHg 61%
    16:00 +6°C° 0 mm 2 mps 741 mmHg 58%
    17:00 +6°C° 0 mm 2 mps 741 mmHg 55%
    18:00 +6°C° 0 mm 1 mps 741 mmHg 61%
    19:00 +5°C° 0 mm 1 mps 741 mmHg 66%
    20:00 +4°C° 0 mm 1 mps 741 mmHg 71%
    21:00 +3°C° 0 mm 1 mps 742 mmHg 74%
    22:00 +3°C° 0 mm 1 mps 742 mmHg 76%
    23:00 +2°C° 0 mm 1 mps 742 mmHg 78%

    26 March, Tuesday

    Time Temperature Precipitation Wind Pressure Humidity
    00:00 +2°C° 0 mm 1 mps 743 mmHg 79%
    01:00 +1°C° 0 mm 2 mps 743 mmHg 80%
    02:00 +1°C° 0 mm 2 mps 744 mmHg 81%
    03:00 -1°C° 0 mm 2 mps 744 mmHg 83%
    04:00 -1°C° 0 mm 3 mps 745 mmHg 85%
    05:00 -1°C° 0 mm 3 mps 746 mmHg 87%
    06:00 -2°C° 0 mm 4 mps 747 mmHg 85%
    07:00 -1°C° 0 mm 4 mps 748 mmHg 82%
    08:00 -1°C° 0 mm 5 mps 749 mmHg 79%
    09:00 0°C° 0 mm 5 mps 749 mmHg 71%
    10:00 +1°C° 0 mm 5 mps 750 mmHg 63%
    11:00 +3°C° 0 mm 4 mps 751 mmHg 55%
    12:00 +4°C° 0 mm 4 mps 751 mmHg 51%
    13:00 +4°C° 0 mm 4 mps 751 mmHg 47%
    14:00 +5°C° 0 mm 4 mps 751 mmHg 42%
    15:00 +5°C° 0 mm 4 mps 751 mmHg 42%
    16:00 +5°C° 0 mm 4 mps 751 mmHg 41%
    17:00 +5°C° 0 mm 4 mps 751 mmHg 40%
    18:00 +3°C° 0 mm 4 mps 752 mmHg 46%
    19:00 +2°C° 0 mm 3 mps 752 mmHg 52%
    20:00 +1°C° 0 mm 3 mps 752 mmHg 58%
    21:00 0°C° 0 mm 3 mps 752 mmHg 62%
    22:00 -1°C° 0 mm 4 mps 752 mmHg 65%
    23:00 -1°C° 0 mm 4 mps 752 mmHg 68%

    27 March, Wednesday

    Time Temperature Precipitation Wind Pressure Humidity
    00:00 -2°C° 0 mm 4 mps 752 mmHg 69%
    01:00 -2°C° 0 mm 4 mps 751 mmHg 70%
    02:00 -2°C° 0 mm 5 mps 751 mmHg 70%
    03:00 -1°C° 0 mm 5 mps 751 mmHg 71%
    04:00 -1°C° 0 mm 5 mps 751 mmHg 73%
    05:00 -1°C° 0 mm 5 mps 750 mmHg 74%
    06:00 0°C° 0 mm 5 mps 750 mmHg 74%
    07:00 0°C° 0 mm 5 mps 750 mmHg 74%
    08:00 +1°C° 0 mm 6 mps 750 mmHg 73%
    09:00 +2°C° 0 mm 6 mps 750 mmHg 71%
    10:00 +3°C° 0 mm 6 mps 750 mmHg 68%
    11:00 +4°C° 0 mm 6 mps 750 mmHg 66%
    12:00 +5°C° 0 mm 6 mps 750 mmHg 65%
    13:00 +5°C° 0 mm 6 mps 750 mmHg 65%
    14:00 +5°C° 0 mm 6 mps 750 mmHg 64%
    15:00 +5°C° 0 mm 6 mps 750 mmHg 66%
    16:00 +5°C° 0 mm 6 mps 749 mmHg 67%
    17:00 +5°C° 0 mm 5 mps 749 mmHg 69%
    18:00 +5°C° 0 mm 5 mps 750 mmHg 73%
    19:00 +3°C° 0 mm 5 mps 750 mmHg 77%
    20:00 +3°C° 0 mm 5 mps 750 mmHg 80%
    21:00 +4°C° 0 mm 4 mps 750 mmHg 83%
    22:00 +4°C° 0 mm 4 mps 750 mmHg 86%
    23:00 +3°C° 0 mm 4 mps 751 mmHg 88%
    Show more